| time (UTC) | temp F | wind direction | speed MPH | gust MPH | rain 1hr in | rain 24hr in | rain mn in | humidity % | barometer mb |
| 20260510065300 | 60 | 141 | 0.0 | 0.0 | 0.00 | 0.04 | 0.04 | 90 | 1012.5 |
| 20260510064800 | 60 | 143 | 0.0 | 0.0 | 0.00 | 0.04 | 0.04 | 90 | 1012.6 |
| 20260510064259 | 60 | 139 | 0.0 | 0.0 | 0.00 | 0.04 | 0.04 | 90 | 1012.6 |
| 20260510063759 | 60 | 142 | 0.0 | 0.0 | 0.00 | 0.04 | 0.04 | 91 | 1012.6 |
| 20260510063259 | 59 | 141 | 0.0 | 0.0 | 0.00 | 0.04 | 0.04 | 90 | 1012.6 |
| 20260510062758 | 59 | 143 | 0.0 | 0.0 | 0.00 | 0.04 | 0.04 | 90 | 1012.7 |
| 20260510062258 | 59 | 359 | 0.0 | 0.0 | 0.00 | 0.04 | 0.04 | 90 | 1012.8 |
| 20260510061758 | 59 | 142 | 0.0 | 0.0 | 0.00 | 0.04 | 0.04 | 90 | 1012.8 |
| 20260510061258 | 59 | 141 | 0.0 | 0.0 | 0.00 | 0.04 | 0.04 | 91 | 1012.8 |
| 20260510060757 | 59 | 139 | 0.0 | 0.0 | 0.00 | 0.04 | 0.04 | 91 | 1012.8 |
| 20260510060257 | 59 | 139 | 0.0 | 0.0 | 0.00 | 0.04 | 0.04 | 90 | 1012.8 |
| 20260510055757 | 59 | 141 | 0.0 | 0.0 | 0.00 | 0.04 | 0.04 | 90 | 1012.7 |
| 20260510055256 | 58 | 359 | 0.0 | 0.0 | 0.00 | 0.04 | 0.04 | 90 | 1012.7 |
| 20260510054756 | 58 | 359 | 0.0 | 0.0 | 0.00 | 0.04 | 0.04 | 90 | 1012.7 |
| 20260510054256 | 58 | 141 | 0.0 | 0.0 | 0.00 | 0.04 | 0.04 | 90 | 1012.6 |
| 20260510053756 | 58 | 141 | 0.0 | 0.0 | 0.00 | 0.04 | 0.04 | 91 | 1012.6 |
| 20260510053255 | 58 | 141 | 0.0 | 0.0 | 0.00 | 0.04 | 0.04 | 90 | 1012.7 |
| 20260510052755 | 58 | 143 | 0.0 | 0.0 | 0.00 | 0.04 | 0.04 | 91 | 1012.8 |
| 20260510052255 | 58 | 143 | 0.0 | 0.0 | 0.00 | 0.04 | 0.04 | 90 | 1012.8 |
| 20260510051754 | 58 | 143 | 0.0 | 0.0 | 0.00 | 0.04 | 0.04 | 90 | 1012.8 |
| 20260510051254 | 58 | 141 | 0.0 | 0.0 | 0.00 | 0.04 | 0.04 | 90 | 1013.0 |
| 20260510050754 | 58 | 141 | 0.0 | 0.0 | 0.00 | 0.04 | 0.04 | 90 | 1013.0 |
| 20260510050254 | 58 | 142 | 0.0 | 0.0 | 0.00 | 0.04 | 0.04 | 90 | 1012.9 |
| 20260510045753 | 58 | 144 | 0.0 | 0.0 | 0.00 | 0.04 | 0.04 | 90 | 1012.9 |
| 20260510045253 | 58 | 145 | 0.0 | 0.0 | 0.00 | 0.04 | 0.04 | 90 | 1012.9 |
| 20260510044753 | 58 | 152 | 0.0 | 0.0 | 0.00 | 0.04 | 0.04 | 90 | 1012.8 |
| 20260510044252 | 58 | 149 | 0.0 | 0.0 | 0.00 | 0.04 | 0.04 | 90 | 1012.7 |
| 20260510043752 | 58 | 116 | 0.0 | 0.0 | 0.01 | 0.04 | 0.04 | 89 | 1012.5 |
| 20260510043404 | 58 | 114 | 0.0 | 0.0 | 0.02 | 0.04 | 0.04 | 89 | 1012.6 |
| 20260510043252 | 58 | 114 | 0.0 | 0.0 | 0.02 | 0.04 | 0.04 | 89 | 1012.6 |
| 20260510042752 | 58 | 116 | 0.0 | 0.0 | 0.04 | 0.04 | 0.04 | 88 | 1012.7 |
| 20260510042251 | 58 | 116 | 0.0 | 0.0 | 0.04 | 0.04 | 0.04 | 88 | 1012.8 |
| 20260510041836 | 59 | 112 | 0.0 | 0.0 | 0.04 | 0.04 | 0.04 | 88 | 1012.9 |
| 20260510041751 | 59 | 112 | 0.0 | 0.0 | 0.04 | 0.04 | 0.04 | 88 | 1012.9 |
| 20260510041251 | 59 | 114 | 0.0 | 0.0 | 0.04 | 0.04 | 0.04 | 87 | 1012.8 |
| 20260510040750 | 59 | 110 | 0.0 | 0.0 | 0.04 | 0.04 | 0.04 | 87 | 1012.8 |
| 20260510040250 | 59 | 112 | 0.0 | 0.0 | 0.04 | 0.04 | 0.04 | 87 | 1012.8 |
| 20260510035750 | 59 | 110 | 0.0 | 0.0 | 0.04 | 0.04 | 0.04 | 86 | 1012.8 |
| 20260510035249 | 59 | 111 | 0.0 | 0.0 | 0.04 | 0.04 | 0.04 | 85 | 1012.8 |
| 20260510034749 | 59 | 113 | 0.0 | 0.0 | 0.04 | 0.04 | 0.04 | 85 | 1012.9 |
| 20260510034249 | 60 | 113 | 0.0 | 0.0 | 0.04 | 0.04 | 0.04 | 84 | 1013.0 |
| 20260510033749 | 60 | 127 | 0.0 | 0.0 | 0.03 | 0.03 | 0.03 | 84 | 1013.1 |
| 20260510033248 | 60 | 127 | 0.0 | 0.0 | 0.02 | 0.02 | 0.02 | 83 | 1013.3 |
| 20260510032748 | 60 | 128 | 0.0 | 0.0 | 0.00 | 0.00 | 0.00 | 83 | 1013.3 |
| 20260510032248 | 59 | 128 | 0.0 | 0.0 | 0.00 | 0.00 | 0.00 | 83 | 1013.3 |
| 20260510031748 | 59 | 128 | 0.0 | 0.0 | 0.00 | 0.00 | 0.00 | 83 | 1013.3 |
| 20260510031247 | 59 | 129 | 0.0 | 0.0 | 0.00 | 0.00 | 0.00 | 83 | 1013.3 |
| 20260510030747 | 59 | 133 | 0.0 | 0.0 | 0.00 | 0.00 | 0.00 | 84 | 1013.7 |
| 20260510030247 | 59 | 133 | 0.0 | 0.0 | 0.00 | 0.00 | 0.00 | 83 | 1013.3 |
| 20260510025746 | 59 | 133 | 0.0 | 0.0 | 0.00 | 0.00 | 0.00 | 84 | 1013.2 |
| 20260510025246 | 58 | 130 | 0.0 | 0.0 | 0.00 | 0.00 | 0.00 | 84 | 1013.2 |
| 20260510024746 | 58 | 130 | 0.0 | 0.0 | 0.00 | 0.00 | 0.00 | 84 | 1013.2 |
| 20260510024245 | 59 | 130 | 0.0 | 0.0 | 0.00 | 0.00 | 0.00 | 84 | 1013.2 |
| 20260510023745 | 59 | 130 | 0.0 | 0.0 | 0.00 | 0.00 | 0.00 | 84 | 1013.3 |
| 20260510023245 | 59 | 130 | 0.0 | 0.0 | 0.00 | 0.00 | 0.00 | 84 | 1013.2 |
| 20260510022745 | 59 | 130 | 0.0 | 0.0 | 0.00 | 0.00 | 0.00 | 84 | 1013.2 |
| 20260510022244 | 58 | 130 | 0.0 | 0.0 | 0.00 | 0.00 | 0.00 | 85 | 1013.3 |
| 20260510021744 | 58 | 130 | 0.0 | 0.0 | 0.00 | 0.00 | 0.00 | 85 | 1013.3 |
| 20260510021244 | 58 | 130 | 0.0 | 0.0 | 0.00 | 0.00 | 0.00 | 85 | 1013.3 |
| 20260510020743 | 58 | 130 | 0.0 | 0.0 | 0.00 | 0.00 | 0.00 | 85 | 1013.4 |
| 20260510020243 | 58 | 130 | 0.0 | 0.0 | 0.00 | 0.00 | 0.00 | 85 | 1013.4 |
| 20260510015743 | 58 | 130 | 0.0 | 0.0 | 0.00 | 0.00 | 0.00 | 85 | 1013.4 |
| 20260510015243 | 58 | 130 | 0.0 | 0.0 | 0.00 | 0.00 | 0.00 | 85 | 1013.5 |
| 20260510014742 | 58 | 130 | 0.0 | 0.0 | 0.00 | 0.00 | 0.00 | 85 | 1013.5 |
| 20260510014242 | 57 | 130 | 0.0 | 0.0 | 0.00 | 0.00 | 0.00 | 85 | 1013.4 |
| 20260510013742 | 57 | 130 | 0.0 | 0.0 | 0.00 | 0.00 | 0.00 | 84 | 1013.4 |
| 20260510013241 | 57 | 130 | 0.0 | 0.0 | 0.00 | 0.00 | 0.00 | 84 | 1013.5 |
| 20260510012741 | 58 | 130 | 0.0 | 0.0 | 0.00 | 0.00 | 0.00 | 84 | 1013.5 |
| 20260510012241 | 58 | 130 | 0.0 | 0.0 | 0.00 | 0.00 | 0.00 | 84 | 1013.6 |
| 20260510011741 | 58 | 130 | 0.0 | 0.0 | 0.00 | 0.00 | 0.00 | 84 | 1013.7 |
| 20260510011240 | 58 | 130 | 0.0 | 0.0 | 0.00 | 0.00 | 0.00 | 83 | 1013.7 |
| 20260510010740 | 58 | 130 | 0.0 | 0.0 | 0.00 | 0.00 | 0.00 | 83 | 1013.8 |
| 20260510010240 | 58 | 130 | 0.0 | 0.0 | 0.00 | 0.00 | 0.00 | 83 | 1013.8 |
| 20260510005739 | 58 | 130 | 0.0 | 0.0 | 0.00 | 0.00 | 0.00 | 83 | 1014.0 |
| 20260510005239 | 58 | 130 | 0.0 | 0.0 | 0.00 | 0.00 | 0.00 | 83 | 1014.0 |
| 20260510004739 | 58 | 130 | 0.0 | 0.0 | 0.00 | 0.00 | 0.00 | 83 | 1014.0 |
| 20260510004239 | 58 | 130 | 0.0 | 0.0 | 0.00 | 0.00 | 0.00 | 83 | 1014.1 |
| 20260510003738 | 58 | 130 | 0.0 | 0.0 | 0.00 | 0.00 | 0.00 | 83 | 1014.2 |
| 20260510003238 | 58 | 130 | 0.0 | 0.0 | 0.00 | 0.00 | 0.00 | 83 | 1014.2 |
| 20260510002738 | 58 | 130 | 0.0 | 0.0 | 0.00 | 0.00 | 0.00 | 83 | 1014.2 |
| 20260510002237 | 58 | 130 | 0.0 | 0.0 | 0.00 | 0.00 | 0.00 | 83 | 1014.2 |
| 20260510001737 | 58 | 130 | 0.0 | 0.0 | 0.00 | 0.00 | 0.00 | 83 | 1014.2 |
| 20260510001237 | 58 | 130 | 0.0 | 0.0 | 0.00 | 0.00 | 0.00 | 82 | 1014.2 |
| 20260510000737 | 58 | 130 | 0.0 | 0.0 | 0.00 | 0.00 | 0.00 | 82 | 1014.2 |
| 20260510000236 | 58 | 130 | 0.0 | 0.0 | 0.00 | 0.00 | 0.00 | 82 | 1014.2 |
| 20260509235736 | 58 | 130 | 0.0 | 0.0 | 0.00 | 0.00 | 0.00 | 82 | 1014.2 |
| 20260509235236 | 59 | 130 | 0.0 | 0.0 | 0.00 | 0.00 | 0.00 | 82 | 1014.1 |
| 20260509234735 | 59 | 130 | 0.0 | 0.0 | 0.00 | 0.00 | 0.00 | 82 | 1014.2 |
| 20260509234235 | 59 | 130 | 0.0 | 0.0 | 0.00 | 0.00 | 0.00 | 82 | 1014.2 |
| 20260509233735 | 59 | 130 | 0.0 | 0.0 | 0.00 | 0.00 | 0.00 | 81 | 1014.2 |
| 20260509233235 | 59 | 130 | 0.0 | 0.0 | 0.00 | 0.00 | 0.00 | 81 | 1014.3 |
| 20260509232734 | 59 | 130 | 0.0 | 0.0 | 0.00 | 0.00 | 0.00 | 80 | 1014.2 |
| 20260509232234 | 59 | 130 | 0.0 | 0.0 | 0.00 | 0.00 | 0.00 | 80 | 1014.3 |
| 20260509231734 | 59 | 130 | 0.0 | 0.0 | 0.00 | 0.00 | 0.00 | 80 | 1014.3 |
| 20260509231233 | 59 | 130 | 0.0 | 0.0 | 0.00 | 0.00 | 0.00 | 80 | 1014.3 |
| 20260509230733 | 59 | 130 | 0.0 | 0.0 | 0.00 | 0.00 | 0.00 | 79 | 1014.4 |
| 20260509230233 | 60 | 130 | 0.0 | 0.0 | 0.00 | 0.00 | 0.00 | 79 | 1014.4 |
| 20260509225733 | 60 | 130 | 0.0 | 0.0 | 0.00 | 0.00 | 0.00 | 79 | 1014.4 |
| 20260509225232 | 60 | 130 | 0.0 | 0.0 | 0.00 | 0.00 | 0.00 | 79 | 1014.4 |
| 20260509224732 | 60 | 130 | 0.0 | 0.0 | 0.00 | 0.00 | 0.00 | 79 | 1014.4 |
| 20260509224232 | 60 | 130 | 0.0 | 0.0 | 0.00 | 0.00 | 0.00 | 78 | 1014.4 |
| 20260509223731 | 60 | 130 | 0.0 | 0.0 | 0.00 | 0.00 | 0.00 | 78 | 1014.4 |
| 20260509223231 | 60 | 130 | 0.0 | 0.0 | 0.00 | 0.00 | 0.00 | 78 | 1014.4 |
| 20260509222731 | 61 | 130 | 0.0 | 0.0 | 0.00 | 0.00 | 0.00 | 77 | 1014.5 |
| 20260509222230 | 61 | 130 | 0.0 | 0.0 | 0.00 | 0.00 | 0.00 | 77 | 1014.5 |
| 20260509221730 | 61 | 130 | 0.0 | 0.0 | 0.00 | 0.00 | 0.00 | 77 | 1014.6 |
| 20260509221230 | 61 | 130 | 0.0 | 0.0 | 0.00 | 0.00 | 0.00 | 77 | 1014.5 |
| 20260509220730 | 61 | 130 | 0.0 | 0.0 | 0.00 | 0.00 | 0.00 | 76 | 1014.5 |
| 20260509220229 | 61 | 130 | 0.0 | 0.0 | 0.00 | 0.00 | 0.00 | 76 | 1014.4 |
| 20260509215729 | 61 | 130 | 0.0 | 0.0 | 0.00 | 0.00 | 0.00 | 76 | 1014.4 |
| 20260509215229 | 61 | 130 | 0.0 | 0.0 | 0.00 | 0.00 | 0.00 | 75 | 1014.4 |
| 20260509214728 | 62 | 130 | 0.0 | 0.0 | 0.00 | 0.00 | 0.00 | 75 | 1014.4 |
| 20260509214228 | 62 | 130 | 0.0 | 0.0 | 0.00 | 0.00 | 0.00 | 74 | 1014.4 |
| 20260509213728 | 62 | 130 | 0.0 | 0.0 | 0.00 | 0.00 | 0.00 | 74 | 1014.4 |
| 20260509213228 | 62 | 130 | 0.0 | 0.0 | 0.00 | 0.00 | 0.00 | 74 | 1014.4 |
| 20260509212727 | 62 | 130 | 0.0 | 0.0 | 0.00 | 0.00 | 0.00 | 73 | 1014.4 |
| 20260509212227 | 62 | 130 | 0.0 | 0.0 | 0.00 | 0.00 | 0.00 | 72 | 1014.4 |
| 20260509211812 | 63 | 130 | 0.0 | 0.0 | 0.00 | 0.00 | 0.00 | 72 | 1014.5 |
| 20260509211727 | 63 | 130 | 0.0 | 0.0 | 0.00 | 0.00 | 0.00 | 72 | 1014.5 |
| 20260509211227 | 63 | 130 | 0.0 | 0.0 | 0.00 | 0.00 | 0.00 | 72 | 1014.5 |
| 20260509210726 | 63 | 130 | 0.0 | 0.0 | 0.00 | 0.00 | 0.00 | 71 | 1014.4 |
| 20260509210226 | 63 | 130 | 0.0 | 0.0 | 0.00 | 0.00 | 0.00 | 71 | 1014.5 |
| 20260509205726 | 64 | 130 | 0.0 | 0.0 | 0.00 | 0.00 | 0.00 | 70 | 1014.5 |
| 20260509205225 | 64 | 130 | 0.0 | 0.0 | 0.00 | 0.00 | 0.00 | 69 | 1014.5 |
| 20260509204725 | 64 | 130 | 0.0 | 0.0 | 0.00 | 0.00 | 0.00 | 68 | 1014.5 |
| 20260509204225 | 64 | 130 | 0.0 | 0.0 | 0.00 | 0.00 | 0.00 | 68 | 1014.5 |
| 20260509203724 | 64 | 130 | 0.0 | 0.0 | 0.00 | 0.00 | 0.00 | 67 | 1014.6 |
| 20260509203224 | 64 | 130 | 0.0 | 0.0 | 0.00 | 0.00 | 0.00 | 67 | 1014.6 |
| 20260509202724 | 64 | 130 | 0.0 | 0.0 | 0.00 | 0.00 | 0.00 | 66 | 1014.6 |
| 20260509202224 | 64 | 129 | 0.0 | 0.0 | 0.00 | 0.00 | 0.00 | 66 | 1014.6 |
| 20260509201723 | 65 | 130 | 0.0 | 0.0 | 0.00 | 0.00 | 0.00 | 66 | 1014.6 |
| 20260509201223 | 65 | 130 | 0.0 | 0.0 | 0.00 | 0.00 | 0.00 | 66 | 1014.5 |
| 20260509200723 | 65 | 130 | 0.0 | 0.0 | 0.00 | 0.00 | 0.00 | 65 | 1014.5 |
| 20260509200222 | 65 | 130 | 0.0 | 0.0 | 0.00 | 0.00 | 0.00 | 65 | 1014.6 |
| 20260509195722 | 65 | 130 | 0.0 | 0.0 | 0.00 | 0.00 | 0.00 | 65 | 1014.6 |
| 20260509195222 | 65 | 130 | 0.0 | 0.0 | 0.00 | 0.00 | 0.00 | 65 | 1014.6 |
| 20260509194722 | 66 | 130 | 0.0 | 0.0 | 0.00 | 0.00 | 0.00 | 65 | 1014.5 |
| 20260509194221 | 66 | 130 | 0.0 | 0.0 | 0.00 | 0.00 | 0.00 | 64 | 1014.4 |
| 20260509193721 | 66 | 130 | 0.0 | 0.0 | 0.00 | 0.00 | 0.00 | 64 | 1014.4 |
| 20260509193221 | 66 | 130 | 0.0 | 0.0 | 0.00 | 0.00 | 0.00 | 63 | 1014.3 |
| 20260509192720 | 67 | 130 | 0.0 | 0.0 | 0.00 | 0.00 | 0.00 | 63 | 1014.2 |
| 20260509192220 | 67 | 130 | 0.0 | 0.0 | 0.00 | 0.00 | 0.00 | 62 | 1014.2 |
| 20260509191720 | 67 | 130 | 0.0 | 0.0 | 0.00 | 0.00 | 0.00 | 62 | 1014.2 |
| 20260509191220 | 68 | 130 | 0.0 | 0.0 | 0.00 | 0.00 | 0.00 | 61 | 1014.1 |
| 20260509190719 | 68 | 130 | 0.0 | 0.0 | 0.00 | 0.00 | 0.00 | 61 | 1014.0 |
| 20260509190219 | 68 | 130 | 0.0 | 0.0 | 0.00 | 0.00 | 0.00 | 60 | 1013.9 |
| 20260509185719 | 68 | 130 | 0.0 | 0.0 | 0.00 | 0.00 | 0.00 | 59 | 1013.9 |
| 20260509185218 | 69 | 133 | 0.0 | 0.0 | 0.00 | 0.00 | 0.00 | 59 | 1013.8 |
| 20260509184718 | 69 | 127 | 0.0 | 0.0 | 0.00 | 0.00 | 0.00 | 59 | 1013.8 |
| 20260509184218 | 69 | 134 | 0.0 | 0.0 | 0.00 | 0.00 | 0.00 | 59 | 1013.8 |
| 20260509183718 | 69 | 140 | 0.0 | 0.0 | 0.00 | 0.00 | 0.00 | 59 | 1013.8 |
| 20260509183217 | 69 | 133 | 0.0 | 0.0 | 0.00 | 0.00 | 0.00 | 59 | 1013.8 |
| 20260509182717 | 70 | 82 | 0.0 | 0.0 | 0.00 | 0.00 | 0.00 | 59 | 1013.8 |
| 20260509182217 | 70 | 107 | 0.0 | 0.0 | 0.00 | 0.00 | 0.00 | 58 | 1013.7 |
| 20260509181716 | 70 | 116 | 0.0 | 0.0 | 0.00 | 0.00 | 0.00 | 57 | 1013.7 |
| 20260509181216 | 71 | 146 | 0.0 | 0.0 | 0.00 | 0.00 | 0.00 | 57 | 1013.7 |
| 20260509180716 | 71 | 122 | 0.0 | 0.0 | 0.00 | 0.00 | 0.00 | 56 | 1013.7 |
| 20260509180216 | 71 | 141 | 0.0 | 0.0 | 0.00 | 0.00 | 0.00 | 56 | 1013.7 |
| 20260509175715 | 71 | 127 | 0.0 | 0.0 | 0.00 | 0.00 | 0.00 | 55 | 1013.7 |
| 20260509175215 | 72 | 96 | 0.0 | 0.0 | 0.00 | 0.00 | 0.00 | 55 | 1013.6 |
| 20260509174715 | 72 | 98 | 0.0 | 0.0 | 0.00 | 0.00 | 0.00 | 54 | 1013.6 |
| 20260509174214 | 72 | 122 | 0.0 | 0.0 | 0.00 | 0.00 | 0.00 | 54 | 1013.6 |
| 20260509173714 | 73 | 116 | 0.0 | 0.0 | 0.00 | 0.00 | 0.00 | 54 | 1013.5 |
| 20260509173214 | 73 | 76 | 0.0 | 0.0 | 0.00 | 0.00 | 0.00 | 53 | 1013.5 |
| 20260509172714 | 73 | 36 | 0.0 | 0.0 | 0.00 | 0.00 | 0.00 | 53 | 1013.6 |
| 20260509172213 | 73 | 68 | 0.0 | 0.0 | 0.00 | 0.00 | 0.00 | 51 | 1013.6 |
| 20260509171713 | 74 | 98 | 0.0 | 0.0 | 0.00 | 0.00 | 0.00 | 49 | 1013.5 |
| 20260509171213 | 74 | 114 | 0.0 | 0.0 | 0.00 | 0.00 | 0.00 | 48 | 1013.5 |
| 20260509170712 | 74 | 68 | 0.0 | 0.0 | 0.00 | 0.00 | 0.00 | 47 | 1013.5 |
| 20260509170212 | 74 | 81 | 0.0 | 0.0 | 0.00 | 0.00 | 0.00 | 48 | 1013.4 |
| 20260509165712 | 74 | 78 | 0.0 | 0.0 | 0.00 | 0.00 | 0.00 | 47 | 1013.4 |
| 20260509165211 | 74 | 88 | 0.0 | 0.0 | 0.00 | 0.00 | 0.00 | 47 | 1013.5 |
| 20260509164711 | 75 | 74 | 0.0 | 0.0 | 0.00 | 0.00 | 0.00 | 47 | 1013.5 |
| 20260509164211 | 74 | 101 | 0.0 | 0.0 | 0.00 | 0.00 | 0.00 | 47 | 1013.6 |
| 20260509163711 | 74 | 75 | 0.0 | 0.0 | 0.00 | 0.00 | 0.00 | 46 | 1013.7 |
| 20260509163210 | 75 | 75 | 0.0 | 0.0 | 0.00 | 0.00 | 0.00 | 46 | 1013.7 |
| 20260509162710 | 75 | 91 | 0.0 | 0.0 | 0.00 | 0.00 | 0.00 | 45 | 1013.8 |
| 20260509162210 | 74 | 54 | 0.0 | 0.0 | 0.00 | 0.00 | 0.00 | 45 | 1013.8 |
| 20260509161710 | 75 | 88 | 0.0 | 0.0 | 0.00 | 0.00 | 0.00 | 45 | 1013.9 |
| 20260509161209 | 75 | 83 | 0.0 | 0.0 | 0.00 | 0.00 | 0.00 | 45 | 1014.0 |
| 20260509160709 | 75 | 100 | 0.0 | 0.0 | 0.00 | 0.00 | 0.00 | 45 | 1013.9 |
| 20260509160209 | 75 | 130 | 0.0 | 0.0 | 0.00 | 0.00 | 0.00 | 45 | 1014.0 |
| 20260509155708 | 75 | 83 | 0.0 | 0.0 | 0.00 | 0.00 | 0.00 | 45 | 1014.0 |
| 20260509155208 | 75 | 86 | 0.0 | 0.0 | 0.00 | 0.00 | 0.00 | 44 | 1013.9 |
| 20260509154708 | 75 | 78 | 0.0 | 0.0 | 0.00 | 0.00 | 0.00 | 45 | 1014.1 |
| 20260509154208 | 75 | 62 | 0.0 | 0.0 | 0.00 | 0.00 | 0.00 | 45 | 1014.1 |
| 20260509153707 | 75 | 128 | 0.0 | 0.0 | 0.00 | 0.00 | 0.00 | 45 | 1014.1 |
| 20260509153207 | 75 | 91 | 0.0 | 0.0 | 0.00 | 0.00 | 0.00 | 47 | 1014.1 |
| 20260509152707 | 75 | 103 | 0.0 | 0.0 | 0.00 | 0.00 | 0.00 | 47 | 1014.1 |
| 20260509152206 | 75 | 135 | 0.0 | 0.0 | 0.00 | 0.00 | 0.00 | 47 | 1014.1 |
| 20260509151706 | 75 | 87 | 0.0 | 0.0 | 0.00 | 0.00 | 0.00 | 47 | 1014.2 |
| 20260509151206 | 76 | 87 | 0.0 | 0.0 | 0.00 | 0.00 | 0.00 | 47 | 1014.2 |
| 20260509150705 | 75 | 112 | 0.0 | 0.0 | 0.00 | 0.00 | 0.00 | 47 | 1014.3 |
| 20260509150205 | 75 | 70 | 0.0 | 0.0 | 0.00 | 0.00 | 0.00 | 47 | 1014.3 |
| 20260509145705 | 75 | 71 | 0.0 | 0.0 | 0.00 | 0.00 | 0.00 | 46 | 1014.3 |
| 20260509145205 | 75 | 97 | 0.0 | 0.0 | 0.00 | 0.00 | 0.00 | 47 | 1014.3 |
| 20260509144704 | 75 | 24 | 0.0 | 0.0 | 0.00 | 0.00 | 0.00 | 47 | 1014.4 |
| 20260509144204 | 75 | 19 | 0.0 | 0.0 | 0.00 | 0.00 | 0.00 | 48 | 1014.4 |
| 20260509143704 | 75 | 81 | 0.0 | 0.0 | 0.00 | 0.00 | 0.00 | 46 | 1014.5 |
| 20260509143203 | 75 | 106 | 0.0 | 0.0 | 0.00 | 0.00 | 0.00 | 46 | 1014.5 |
| 20260509142703 | 75 | 48 | 0.0 | 0.0 | 0.00 | 0.00 | 0.00 | 46 | 1014.5 |
| 20260509142203 | 74 | 68 | 0.0 | 0.0 | 0.00 | 0.00 | 0.00 | 45 | 1014.6 |
| 20260509141703 | 75 | 45 | 0.0 | 0.0 | 0.00 | 0.00 | 0.00 | 45 | 1014.7 |
| 20260509141202 | 75 | 70 | 0.0 | 0.0 | 0.00 | 0.00 | 0.00 | 46 | 1014.7 |
| 20260509140702 | 75 | 118 | 0.0 | 0.0 | 0.00 | 0.00 | 0.00 | 45 | 1014.7 |
| 20260509140202 | 75 | 62 | 0.0 | 0.0 | 0.00 | 0.00 | 0.00 | 45 | 1014.8 |
| 20260509135701 | 75 | 92 | 0.0 | 0.0 | 0.00 | 0.00 | 0.00 | 46 | 1014.8 |
| 20260509135201 | 75 | 83 | 0.0 | 0.0 | 0.00 | 0.00 | 0.00 | 46 | 1014.9 |
| 20260509134701 | 75 | 42 | 0.0 | 0.0 | 0.00 | 0.00 | 0.00 | 47 | 1014.9 |
| 20260509134201 | 75 | 40 | 0.0 | 0.0 | 0.00 | 0.00 | 0.00 | 46 | 1014.9 |
| 20260509133700 | 75 | 41 | 0.0 | 0.0 | 0.00 | 0.00 | 0.00 | 46 | 1015.1 |
| 20260509133200 | 74 | 49 | 0.0 | 0.0 | 0.00 | 0.00 | 0.00 | 47 | 1015.1 |
| 20260509132700 | 74 | 143 | 0.0 | 0.0 | 0.00 | 0.00 | 0.00 | 47 | 1015.2 |
| 20260509132159 | 75 | 50 | 0.0 | 0.0 | 0.00 | 0.00 | 0.00 | 46 | 1015.2 |
| 20260509131659 | 75 | 128 | 0.0 | 0.0 | 0.00 | 0.00 | 0.00 | 45 | 1015.1 |
| 20260509131159 | 75 | 68 | 0.0 | 0.0 | 0.00 | 0.00 | 0.00 | 44 | 1015.2 |
| 20260509130659 | 75 | 70 | 0.0 | 0.0 | 0.00 | 0.00 | 0.00 | 45 | 1015.3 |
| 20260509130158 | 74 | 95 | 0.0 | 0.0 | 0.00 | 0.00 | 0.00 | 44 | 1015.3 |
| 20260509125658 | 75 | 86 | 0.0 | 0.0 | 0.00 | 0.00 | 0.00 | 44 | 1015.4 |
| 20260509125158 | 74 | 106 | 0.0 | 0.0 | 0.00 | 0.00 | 0.00 | 45 | 1015.5 |
| 20260509124657 | 74 | 48 | 0.0 | 0.0 | 0.00 | 0.00 | 0.00 | 46 | 1015.5 |
| 20260509124157 | 74 | 39 | 0.0 | 0.0 | 0.00 | 0.00 | 0.00 | 45 | 1015.5 |
| 20260509123657 | 74 | 81 | 0.0 | 0.0 | 0.00 | 0.00 | 0.00 | 45 | 1015.6 |
| 20260509123157 | 74 | 87 | 0.0 | 0.0 | 0.00 | 0.00 | 0.00 | 46 | 1015.6 |
| 20260509122656 | 74 | 101 | 0.0 | 0.0 | 0.00 | 0.00 | 0.00 | 48 | 1015.7 |
| 20260509122156 | 74 | 78 | 0.0 | 0.0 | 0.00 | 0.00 | 0.00 | 45 | 1015.7 |
| 20260509121656 | 74 | 69 | 0.0 | 0.0 | 0.00 | 0.00 | 0.00 | 45 | 1015.7 |
| 20260509121155 | 74 | 42 | 0.0 | 0.0 | 0.00 | 0.00 | 0.00 | 47 | 1015.8 |
| 20260509120655 | 73 | 14 | 0.0 | 0.0 | 0.00 | 0.00 | 0.00 | 48 | 1015.9 |
| 20260509120155 | 73 | 79 | 0.0 | 0.0 | 0.00 | 0.00 | 0.00 | 48 | 1015.9 |
| 20260509115655 | 73 | 90 | 0.0 | 0.0 | 0.00 | 0.00 | 0.00 | 49 | 1015.9 |
| 20260509115154 | 73 | 18 | 0.0 | 0.0 | 0.00 | 0.00 | 0.00 | 50 | 1016.0 |
| 20260509114654 | 73 | 103 | 0.0 | 0.0 | 0.00 | 0.00 | 0.00 | 50 | 1016.0 |
| 20260509114154 | 73 | 100 | 0.0 | 0.0 | 0.00 | 0.00 | 0.00 | 51 | 1016.0 |
| 20260509113653 | 73 | 60 | 0.0 | 0.0 | 0.00 | 0.00 | 0.00 | 51 | 1016.0 |
| 20260509113153 | 74 | 73 | 0.0 | 0.0 | 0.00 | 0.00 | 0.00 | 50 | 1016.0 |
| 20260509112653 | 74 | 4 | 0.0 | 0.0 | 0.00 | 0.00 | 0.00 | 51 | 1016.0 |
| 20260509112153 | 73 | 12 | 0.0 | 0.0 | 0.00 | 0.00 | 0.00 | 53 | 1016.0 |
| 20260509111652 | 73 | 119 | 0.0 | 0.0 | 0.00 | 0.00 | 0.00 | 51 | 1016.0 |
| 20260509111152 | 74 | 41 | 0.0 | 0.0 | 0.00 | 0.00 | 0.00 | 51 | 1016.1 |
| 20260509110652 | 73 | 126 | 0.0 | 0.0 | 0.00 | 0.00 | 0.00 | 50 | 1016.1 |
| 20260509110151 | 73 | 125 | 0.0 | 0.0 | 0.00 | 0.00 | 0.00 | 48 | 1016.2 |
| 20260509105651 | 73 | 55 | 0.0 | 0.0 | 0.00 | 0.00 | 0.00 | 51 | 1016.3 |
| 20260509105151 | 73 | 129 | 0.0 | 0.0 | 0.00 | 0.00 | 0.00 | 51 | 1016.4 |
| 20260509104651 | 73 | 39 | 0.0 | 0.0 | 0.00 | 0.00 | 0.00 | 53 | 1016.4 |
| 20260509104150 | 73 | 41 | 0.0 | 0.0 | 0.00 | 0.00 | 0.00 | 52 | 1016.4 |
| 20260509103650 | 73 | 70 | 0.0 | 0.0 | 0.00 | 0.00 | 0.00 | 53 | 1016.4 |
| 20260509103150 | 72 | 4 | 0.0 | 0.0 | 0.00 | 0.00 | 0.00 | 52 | 1016.5 |
| 20260509102649 | 72 | 331 | 0.0 | 0.0 | 0.00 | 0.00 | 0.00 | 53 | 1016.6 |
| 20260509102149 | 72 | 350 | 0.0 | 0.0 | 0.00 | 0.00 | 0.00 | 53 | 1016.6 |
| 20260509101649 | 72 | 323 | 0.0 | 0.0 | 0.00 | 0.00 | 0.00 | 53 | 1016.6 |
| 20260509101148 | 72 | 336 | 0.0 | 0.0 | 0.00 | 0.00 | 0.00 | 52 | 1016.7 |
| 20260509100648 | 72 | 29 | 0.0 | 0.0 | 0.00 | 0.00 | 0.00 | 53 | 1016.7 |
| 20260509100148 | 72 | 58 | 0.0 | 0.0 | 0.00 | 0.00 | 0.00 | 52 | 1016.7 |
| 20260509095648 | 72 | 42 | 0.0 | 0.0 | 0.00 | 0.00 | 0.00 | 51 | 1016.7 |
| 20260509095147 | 72 | 179 | 0.0 | 0.0 | 0.00 | 0.00 | 0.00 | 50 | 1016.7 |
| 20260509094647 | 72 | 118 | 0.0 | 0.0 | 0.00 | 0.00 | 0.00 | 51 | 1016.7 |
| 20260509094147 | 72 | 34 | 0.0 | 0.0 | 0.00 | 0.00 | 0.00 | 53 | 1016.8 |
| 20260509093647 | 72 | 34 | 0.0 | 0.0 | 0.00 | 0.00 | 0.00 | 52 | 1016.8 |
| 20260509093146 | 72 | 89 | 0.0 | 0.0 | 0.00 | 0.00 | 0.00 | 53 | 1016.9 |
| 20260509092646 | 71 | 4 | 0.0 | 0.0 | 0.00 | 0.00 | 0.00 | 53 | 1016.8 |
| 20260509092146 | 71 | 4 | 0.0 | 0.0 | 0.00 | 0.00 | 0.00 | 53 | 1016.9 |
| 20260509091645 | 71 | 4 | 0.0 | 0.0 | 0.00 | 0.00 | 0.00 | 52 | 1016.9 |
| 20260509091145 | 71 | 71 | 0.0 | 0.0 | 0.00 | 0.00 | 0.00 | 50 | 1016.8 |
| 20260509090645 | 71 | 60 | 0.0 | 0.0 | 0.00 | 0.00 | 0.00 | 50 | 1016.8 |
| 20260509090144 | 71 | 335 | 0.0 | 0.0 | 0.00 | 0.00 | 0.00 | 51 | 1016.8 |
| 20260509085644 | 70 | 335 | 0.0 | 0.0 | 0.00 | 0.00 | 0.00 | 51 | 1016.9 |
| 20260509085144 | 70 | 335 | 0.0 | 0.0 | 0.00 | 0.00 | 0.00 | 50 | 1016.9 |
| 20260509084644 | 71 | 318 | 0.0 | 0.0 | 0.00 | 0.00 | 0.00 | 51 | 1017.0 |
| 20260509084143 | 70 | 317 | 0.0 | 0.0 | 0.00 | 0.00 | 0.00 | 51 | 1017.0 |
| 20260509083643 | 70 | 317 | 0.0 | 0.0 | 0.00 | 0.00 | 0.00 | 52 | 1017.1 |
| 20260509083143 | 69 | 316 | 0.0 | 0.0 | 0.00 | 0.00 | 0.00 | 52 | 1017.1 |
| 20260509082642 | 69 | 316 | 0.0 | 0.0 | 0.00 | 0.00 | 0.00 | 52 | 1017.0 |
| 20260509082142 | 69 | 295 | 0.0 | 0.0 | 0.00 | 0.00 | 0.00 | 52 | 1017.1 |
| 20260509081642 | 68 | 294 | 0.0 | 0.0 | 0.00 | 0.00 | 0.00 | 54 | 1017.1 |
| 20260509081142 | 68 | 293 | 0.0 | 0.0 | 0.00 | 0.00 | 0.00 | 55 | 1017.1 |
| 20260509080641 | 68 | 286 | 0.0 | 0.0 | 0.00 | 0.00 | 0.00 | 54 | 1017.1 |
| 20260509080141 | 68 | 275 | 0.0 | 0.0 | 0.00 | 0.00 | 0.00 | 54 | 1017.2 |
| 20260509075641 | 69 | 275 | 0.0 | 0.0 | 0.00 | 0.00 | 0.00 | 54 | 1017.2 |
| 20260509075140 | 69 | 269 | 0.0 | 0.0 | 0.00 | 0.00 | 0.00 | 53 | 1017.2 |
| 20260509074640 | 69 | 268 | 0.0 | 0.0 | 0.00 | 0.00 | 0.00 | 54 | 1017.3 |
| 20260509074140 | 69 | 266 | 0.0 | 0.0 | 0.00 | 0.00 | 0.00 | 54 | 1017.3 |
| 20260509073640 | 69 | 266 | 0.0 | 0.0 | 0.00 | 0.00 | 0.00 | 54 | 1017.4 |
| 20260509073139 | 69 | 220 | 0.0 | 0.0 | 0.00 | 0.00 | 0.00 | 54 | 1017.4 |
| 20260509072639 | 68 | 216 | 0.0 | 0.0 | 0.00 | 0.00 | 0.00 | 54 | 1017.4 |
| 20260509072139 | 68 | 216 | 0.0 | 0.0 | 0.00 | 0.00 | 0.00 | 55 | 1017.3 |
| 20260509071638 | 68 | 216 | 0.0 | 0.0 | 0.00 | 0.00 | 0.00 | 57 | 1017.4 |
| 20260509071138 | 67 | 216 | 0.0 | 0.0 | 0.00 | 0.00 | 0.00 | 58 | 1017.4 |
| 20260509070638 | 67 | 216 | 0.0 | 0.0 | 0.00 | 0.00 | 0.00 | 57 | 1017.4 |
| 20260509070138 | 67 | 216 | 0.0 | 0.0 | 0.00 | 0.00 | 0.00 | 58 | 1017.4 |
| 20260509065637 | 67 | 216 | 0.0 | 0.0 | 0.00 | 0.00 | 0.00 | 57 | 1017.4 |